Content
SEND FEEDBACK

Daily
Averages
Monthly
Summary
United States of America

CYPRESS MILL, TEXAS


Home > North America > United States > Texas
Elevation: 920 feet     Latitude: 30 23N     Longitude: 098 15W

WEATHER
 
SELECT A DAY
Number of Records: 129,697;   Date Range: 6/5/09 - 12/16/14
 
SHARE

PRINT THIS DATA

[ ← Previous Day ]
WEATHER ALMANAC - JANUARY 31, 2013
[ Next Day → ]
[ °C ]   °F
Weather ElementAverageHighLow
Temperature49 °F68 °F (1:55 pm)28.4 °F (4:35 am)
Dewpoint21.7 °F28.4 °F (8:35 am)17.6 °F (9:35 am)
Humidity40.6 %80 % (5:55 am)16 % (1:55 pm)
Barometer30.21 in30.27 in (9:35 am)30.15 in (3:35 pm)
Wind Speed4 mph12.7 mph (9:55 am)
Wind Gust21.9 mph (1:15 pm)
Weather ElementAverage
Visibility10 mi
Wind DirectionSE (130.9 °)

Weather ElementTotal
Precipitation---
Heating Degree Days16.8 (Base 65)
Averaged from 68 records on January 31, 2013
WEATHER CONDITIONS BREAKOUT
WIND DIRECTION BREAKOUT
WEATHER BY HOUR - JANUARY 31, 2013
[ °C ]   °F
Local TimeTemperatureDewpointHumidityBarometerVisibilityWind DirectionWind SpeedGust SpeedPrecipitationEventsConditions
12:35 AM35.6 °F21.2 °F56 %30.20 in10.0 miCalmClear
12:55 AM33.8 °F21.2 °F60 %30.19 in10.0 miCalmClear
1:15 AM33.8 °F21.2 °F60 %30.19 in10.0 miCalmClear
1:35 AM32.0 °F23.0 °F69 %30.18 in10.0 miCalmClear
1:55 AM32.0 °F23.0 °F69 %30.18 in10.0 miCalmClear
2:15 AM32.0 °F21.2 °F64 %30.18 in10.0 miCalmClear
2:35 AM30.2 °F21.2 °F69 %30.18 in10.0 miSouth (190°)3.5 mphClear
2:55 AM30.2 °F21.2 °F69 %30.18 in10.0 miCalmClear
3:15 AM30.2 °F21.2 °F69 %30.18 in10.0 miSouth (190°)3.5 mphClear
3:35 AM30.2 °F21.2 °F69 %30.17 in10.0 miSouth (190°)3.5 mphClear
3:55 AM30.2 °F21.2 °F69 %30.18 in10.0 miCalmClear
4:15 AM30.2 °F21.2 °F69 %30.18 in10.0 miCalmClear
4:35 AM28.4 °F21.2 °F74 %30.19 in10.0 miCalmClear
4:55 AM30.2 °F23.0 °F75 %30.18 in10.0 miCalmClear
5:15 AM28.4 °F21.2 °F74 %30.19 in10.0 miCalmClear
5:55 AM28.4 °F23.0 °F80 %30.21 in10.0 miCalmClear
6:15 AM28.4 °F23.0 °F80 %30.22 in10.0 miCalmClear
6:35 AM30.2 °F23.0 °F75 %30.22 in10.0 miCalmClear
7:15 AM37.4 °F23.0 °F56 %30.24 in10.0 miCalmClear
7:35 AM35.6 °F26.6 °F70 %30.24 in10.0 miCalmClear
7:55 AM37.4 °F26.6 °F65 %30.25 in10.0 miCalmClear
8:15 AM41.0 °F26.6 °F57 %30.25 in10.0 miCalmClear
8:35 AM42.8 °F28.4 °F57 %30.25 in10.0 miCalmClear
8:55 AM48.2 °F28.4 °F46 %30.25 in10.0 miWNW (300°)3.5 mphClear
9:15 AM50.0 °F28.4 °F43 %30.26 in10.0 miCalmClear
9:35 AM57.2 °F17.6 °F21 %30.27 in10.0 miWSW (250°)10.4 mph19.6 mphClear
9:55 AM59.0 °F17.6 °F20 %30.26 in10.0 miWSW (240°)12.7 mph18.4 mphClear
10:15 AM60.8 °F17.6 °F19 %30.26 in10.0 miWSW (240°)9.2 mph18.4 mphClear
10:35 AM60.8 °F19.4 °F20 %30.26 in10.0 miWSW (240°)10.4 mph20.7 mphClear
10:55 AM62.6 °F19.4 °F19 %30.25 in10.0 miSW (220°)10.4 mph19.6 mphClear
11:15 AM62.6 °F19.4 °F19 %30.24 in10.0 miSW (220°)10.4 mph19.6 mphClear
11:35 AM64.4 °F19.4 °F18 %30.23 in10.0 miSW (220°)10.4 mphClear
11:55 AM66.2 °F19.4 °F17 %30.21 in10.0 miSSW (200°)8.1 mph17.3 mphClear
12:15 PM66.2 °F19.4 °F17 %30.20 in10.0 miWSW (240°)5.8 mphClear
12:35 PM66.2 °F19.4 °F17 %30.19 in10.0 miWSW (250°)9.2 mphClear
12:55 PM66.2 °F19.4 °F17 %30.18 in10.0 miSW (230°)9.2 mph16.1 mphClear
1:15 PM66.2 °F19.4 °F17 %30.17 in10.0 miSouth (190°)11.5 mph21.9 mphClear
1:35 PM66.2 °F19.4 °F17 %30.17 in10.0 miWSW (240°)6.9 mphClear
1:55 PM68.0 °F19.4 °F16 %30.17 in10.0 miSW (230°)12.7 mph20.7 mphClear
2:15 PM66.2 °F19.4 °F17 %30.17 in10.0 miWSW (240°)8.1 mphClear
2:35 PM66.2 °F19.4 °F17 %30.17 in10.0 miSW (220°)6.9 mphClear
2:55 PM66.2 °F19.4 °F17 %30.17 in10.0 miWSW (240°)11.5 mph17.3 mphClear
3:15 PM66.2 °F19.4 °F17 %30.16 in10.0 miSW (220°)5.8 mphClear
3:35 PM66.2 °F19.4 °F17 %30.15 in10.0 miSW (230°)9.2 mphClear
3:55 PM64.4 °F19.4 °F18 %30.15 in10.0 miSSW (210°)5.8 mphClear
4:15 PM64.4 °F19.4 °F18 %30.15 in10.0 miSW (220°)5.8 mphClear
4:35 PM62.6 °F19.4 °F19 %30.15 in10.0 miSSW (200°)5.8 mphClear
4:55 PM60.8 °F19.4 °F20 %30.16 in10.0 miSSW (210°)3.5 mphClear
5:15 PM59.0 °F21.2 °F23 %30.17 in10.0 miSW (220°)4.6 mphClear
5:35 PM55.4 °F23.0 °F29 %30.18 in10.0 miSSW (200°)3.5 mphClear
5:55 PM53.6 °F23.0 °F30 %30.19 in10.0 miSSW (200°)3.5 mphClear
6:15 PM53.6 °F23.0 °F30 %30.20 in10.0 miSSW (200°)4.6 mphClear
6:35 PM53.6 °F23.0 °F30 %30.21 in10.0 miSSW (200°)3.5 mphClear
6:55 PM53.6 °F21.2 °F28 %30.21 in10.0 miSSW (200°)4.6 mphClear
7:15 PM55.4 °F21.2 °F26 %30.22 in10.0 miSSW (200°)4.6 mphClear
7:35 PM55.4 °F21.2 °F26 %30.22 in10.0 miSSW (200°)4.6 mphClear
7:55 PM53.6 °F21.2 °F28 %30.23 in10.0 miSSW (200°)4.6 mphClear
8:15 PM55.4 °F21.2 °F26 %30.23 in10.0 miSSW (210°)4.6 mphClear
8:35 PM53.6 °F21.2 °F28 %30.24 in10.0 miSSW (200°)3.5 mphClear
8:55 PM53.6 °F21.2 °F28 %30.24 in10.0 miSSW (200°)3.5 mphClear
9:15 PM53.6 °F21.2 °F28 %30.24 in10.0 miSSW (210°)3.5 mphClear
9:35 PM51.8 °F21.2 °F30 %30.24 in10.0 miSouth (190°)3.5 mphClear
9:55 PM48.2 °F23.0 °F37 %30.25 in10.0 miCalmClear
10:35 PM42.8 °F23.0 °F46 %30.25 in10.0 miCalmClear
10:55 PM41.0 °F24.8 °F53 %30.25 in10.0 miCalmClear
11:15 PM41.0 °F24.8 °F53 %30.26 in10.0 miCalmClear
11:35 PM39.2 °F24.8 °F56 %30.25 in10.0 miCalmClear
11:55 PM37.4 °F26.6 °F65 %30.25 in10.0 miCalmClear
Hourly data recorded from KDZB, located miles away from Cypress Mill, Texas







STORIES FROM OUR PARTNERS